TimePST,TemperatureF,Dew PointF,Humidity,Sea Level PressureIn,VisibilityMPH,Wind Direction,Wind SpeedMPH,Gust SpeedMPH,PrecipitationIn,Events,Conditions,WindDirDegrees,DateUTC
12:53 AM,60.1,28.0,30,30.26,10.0,NNW,9.2,-,N/A,,Clear,340,2013-02-15 08:53:00
1:53 AM,59.0,28.0,31,30.27,10.0,NNW,6.9,-,N/A,,Clear,340,2013-02-15 09:53:00
2:53 AM,57.9,28.0,32,30.25,10.0,North,9.2,-,N/A,,Clear,350,2013-02-15 10:53:00
3:53 AM,57.9,27.0,31,30.25,10.0,North,8.1,-,N/A,,Clear,360,2013-02-15 11:53:00
4:53 AM,50.0,28.0,43,30.26,10.0,Calm,Calm,-,N/A,,Clear,0,2013-02-15 12:53:00
5:53 AM,43.0,28.9,58,30.27,10.0,Calm,Calm,-,N/A,,Clear,0,2013-02-15 13:53:00
6:53 AM,39.0,28.9,67,30.27,10.0,Calm,Calm,-,N/A,,Clear,0,2013-02-15 14:53:00
7:53 AM,42.1,30.9,65,30.28,10.0,Calm,Calm,-,N/A,,Clear,0,2013-02-15 15:53:00
8:53 AM,48.0,33.1,56,30.29,10.0,Calm,Calm,-,N/A,,Clear,0,2013-02-15 16:53:00
9:53 AM,55.9,35.1,45,30.28,10.0,Calm,Calm,-,N/A,,Clear,0,2013-02-15 17:53:00
10:53 AM,66.9,30.9,26,30.27,10.0,NNE,9.2,-,N/A,,Clear,30,2013-02-15 18:53:00
11:53 AM,69.1,28.9,22,30.26,10.0,Variable,4.6,-,N/A,,Clear,0,2013-02-15 19:53:00
12:53 PM,72.0,30.0,21,30.24,10.0,East,4.6,-,N/A,,Clear,80,2013-02-15 20:53:00
1:53 PM,72.0,28.0,20,30.21,10.0,Calm,Calm,-,N/A,,Clear,0,2013-02-15 21:53:00
2:53 PM,72.0,26.1,18,30.20,10.0,SSW,3.5,-,N/A,,Clear,210,2013-02-15 22:53:00
3:53 PM,73.0,28.0,19,30.20,10.0,Calm,Calm,-,N/A,,Clear,0,2013-02-15 23:53:00
4:53 PM,70.0,37.0,30,30.20,10.0,SE,3.5,-,N/A,,Clear,140,2013-02-16 00:53:00
5:53 PM,64.0,33.1,31,30.21,10.0,Calm,Calm,-,N/A,,Clear,0,2013-02-16 01:53:00
6:53 PM,61.0,30.9,32,30.22,10.0,Calm,Calm,-,N/A,,Clear,0,2013-02-16 02:53:00
7:53 PM,53.1,35.1,50,30.24,10.0,Calm,Calm,-,N/A,,Clear,0,2013-02-16 03:53:00
8:53 PM,48.9,34.0,56,30.25,10.0,Calm,Calm,-,N/A,,Clear,0,2013-02-16 04:53:00
9:53 PM,46.0,34.0,63,30.26,10.0,Calm,Calm,-,N/A,,Clear,0,2013-02-16 05:53:00
10:53 PM,45.0,33.1,63,30.26,10.0,Calm,Calm,-,N/A,,Clear,0,2013-02-16 06:53:00
11:53 PM,43.0,33.1,68,30.26,10.0,Calm,Calm,-,N/A,,Clear,0,2013-02-16 07:53:00